When you browse on this site, cookies collect data to enhance your experience and personalize the content and advertising you see.
Visit our Privacy Policy to learn more. By continuing to use the site, you agree to this use of cookies and data.
EN

Hourly Weather Boxtel

Today, 10 August, Monday

Time Temperature Precipitation Wind Pressure Humidity
00:00 +22°C° 0 mm 3 mps 761 mmHg 85%
01:00 +22°C° 0.1 mm 3 mps 761 mmHg 85%
02:00 +21°C° 0.1 mm 2 mps 760 mmHg 85%
03:00 +21°C° 0.1 mm 2 mps 760 mmHg 85%
04:00 +21°C° 0.1 mm 2 mps 760 mmHg 83%
05:00 +23°C° 0.1 mm 2 mps 760 mmHg 82%
06:00 +23°C° 0.1 mm 2 mps 760 mmHg 80%
07:00 +25°C° 0 mm 3 mps 760 mmHg 76%
08:00 +26°C° 0 mm 3 mps 760 mmHg 71%
09:00 +28°C° 0 mm 3 mps 760 mmHg 66%
10:00 +30°C° 0 mm 3 mps 760 mmHg 60%
11:00 +31°C° 0 mm 3 mps 760 mmHg 54%
12:00 +34°C° 0 mm 3 mps 760 mmHg 49%
13:00 +34°C° 0 mm 3 mps 760 mmHg 47%
14:00 +34°C° 0 mm 3 mps 759 mmHg 46%
15:00 +35°C° 0 mm 3 mps 759 mmHg 45%
16:00 +34°C° 0 mm 3 mps 759 mmHg 51%
17:00 +31°C° 0 mm 3 mps 759 mmHg 56%
18:00 +30°C° 0 mm 3 mps 759 mmHg 62%
19:00 +29°C° 0.1 mm 3 mps 759 mmHg 65%
20:00 +27°C° 0.1 mm 3 mps 760 mmHg 69%
21:00 +25°C° 0.1 mm 4 mps 760 mmHg 73%
22:00 +25°C° 0 mm 3 mps 760 mmHg 76%
23:00 +24°C° 0 mm 3 mps 760 mmHg 80%

Tomorrow, 11 August, Tuesday

Time Temperature Precipitation Wind Pressure Humidity
00:00 +23°C° 0 mm 2 mps 760 mmHg 83%
01:00 +23°C° 0 mm 2 mps 760 mmHg 84%
02:00 +21°C° 0 mm 3 mps 760 mmHg 86%
03:00 +21°C° 0 mm 3 mps 760 mmHg 88%
04:00 +23°C° 0 mm 2 mps 760 mmHg 86%
05:00 +23°C° 0 mm 2 mps 760 mmHg 84%
06:00 +24°C° 0 mm 2 mps 760 mmHg 82%
07:00 +25°C° 0 mm 2 mps 760 mmHg 75%
08:00 +27°C° 0 mm 2 mps 760 mmHg 67%
09:00 +29°C° 0 mm 3 mps 761 mmHg 60%
10:00 +30°C° 0 mm 3 mps 761 mmHg 55%
11:00 +33°C° 0 mm 3 mps 761 mmHg 51%
12:00 +34°C° 0 mm 3 mps 760 mmHg 46%
13:00 +35°C° 0 mm 3 mps 760 mmHg 44%
14:00 +35°C° 0 mm 3 mps 760 mmHg 43%
15:00 +35°C° 0 mm 3 mps 760 mmHg 41%
16:00 +34°C° 0 mm 3 mps 760 mmHg 46%
17:00 +33°C° 0 mm 3 mps 760 mmHg 50%
18:00 +31°C° 0 mm 3 mps 759 mmHg 55%
19:00 +30°C° 0 mm 3 mps 760 mmHg 57%
20:00 +28°C° 0 mm 3 mps 760 mmHg 59%
21:00 +27°C° 0 mm 3 mps 760 mmHg 61%
22:00 +26°C° 0 mm 3 mps 760 mmHg 64%
23:00 +26°C° 0 mm 3 mps 760 mmHg 67%

Day after tomorrow, 12 August, Wednesday

Time Temperature Precipitation Wind Pressure Humidity
00:00 +25°C° 0 mm 3 mps 760 mmHg 70%
01:00 +25°C° 0 mm 3 mps 760 mmHg 73%
02:00 +24°C° 0 mm 3 mps 760 mmHg 75%
03:00 +24°C° 0 mm 3 mps 760 mmHg 77%
04:00 +24°C° 0 mm 3 mps 760 mmHg 77%
05:00 +24°C° 0 mm 3 mps 759 mmHg 76%
06:00 +25°C° 0 mm 3 mps 759 mmHg 76%
07:00 +26°C° 0 mm 3 mps 759 mmHg 70%
08:00 +28°C° 0 mm 3 mps 759 mmHg 64%
09:00 +30°C° 0 mm 3 mps 759 mmHg 59%
10:00 +33°C° 0 mm 3 mps 759 mmHg 53%
11:00 +34°C° 0 mm 3 mps 759 mmHg 48%
12:00 +35°C° 0 mm 3 mps 759 mmHg 43%
13:00 +36°C° 0 mm 3 mps 759 mmHg 43%
14:00 +36°C° 0 mm 3 mps 758 mmHg 42%
15:00 +36°C° 0 mm 3 mps 758 mmHg 42%
16:00 +35°C° 0 mm 3 mps 758 mmHg 45%
17:00 +34°C° 0 mm 3 mps 758 mmHg 48%
18:00 +33°C° 0 mm 3 mps 758 mmHg 52%
19:00 +30°C° 0.1 mm 3 mps 758 mmHg 54%
20:00 +29°C° 0.1 mm 3 mps 758 mmHg 56%
21:00 +28°C° 0.1 mm 3 mps 758 mmHg 58%
22:00 +27°C° 0 mm 3 mps 758 mmHg 60%
23:00 +26°C° 0 mm 3 mps 758 mmHg 63%

13 August, Thursday

Time Temperature Precipitation Wind Pressure Humidity
00:00 +26°C° 0 mm 3 mps 758 mmHg 65%
01:00 +25°C° 0.9 mm 2 mps 757 mmHg 71%
02:00 +24°C° 0.9 mm 2 mps 757 mmHg 77%
03:00 +24°C° 0.9 mm 1 mps 757 mmHg 83%
04:00 +24°C° 0 mm 2 mps 757 mmHg 83%
05:00 +24°C° 0 mm 2 mps 757 mmHg 82%
06:00 +25°C° 0 mm 2 mps 757 mmHg 82%
07:00 +26°C° 0 mm 3 mps 757 mmHg 76%
08:00 +28°C° 0 mm 3 mps 757 mmHg 69%
09:00 +30°C° 0 mm 3 mps 757 mmHg 63%
10:00 +31°C° 0 mm 3 mps 757 mmHg 59%
11:00 +33°C° 0 mm 4 mps 757 mmHg 55%
12:00 +34°C° 0 mm 4 mps 757 mmHg 51%
13:00 +34°C° 0 mm 4 mps 757 mmHg 49%
14:00 +35°C° 0 mm 4 mps 757 mmHg 48%
15:00 +35°C° 0 mm 4 mps 757 mmHg 46%
16:00 +34°C° 0 mm 4 mps 757 mmHg 50%
17:00 +32°C° 0 mm 4 mps 757 mmHg 53%
18:00 +30°C° 0 mm 3 mps 757 mmHg 56%
19:00 +29°C° 0 mm 3 mps 757 mmHg 59%
20:00 +27°C° 0 mm 3 mps 758 mmHg 61%
21:00 +26°C° 0 mm 3 mps 758 mmHg 63%
22:00 +25°C° 0 mm 2 mps 758 mmHg 67%
23:00 +24°C° 0 mm 1 mps 758 mmHg 70%

14 August, Friday

Time Temperature Precipitation Wind Pressure Humidity
00:00 +23°C° 0 mm 1 mps 758 mmHg 73%
01:00 +23°C° 0 mm 2 mps 758 mmHg 72%
02:00 +23°C° 0 mm 2 mps 758 mmHg 71%
03:00 +21°C° 0 mm 3 mps 758 mmHg 70%
04:00 +21°C° 0 mm 3 mps 758 mmHg 72%
05:00 +21°C° 0 mm 4 mps 758 mmHg 74%
06:00 +21°C° 0 mm 4 mps 758 mmHg 76%
07:00 +22°C° 0 mm 4 mps 758 mmHg 73%
08:00 +25°C° 0 mm 5 mps 759 mmHg 69%
09:00 +26°C° 0 mm 5 mps 759 mmHg 65%
10:00 +26°C° 0 mm 5 mps 759 mmHg 63%
11:00 +27°C° 0 mm 4 mps 759 mmHg 61%
12:00 +28°C° 0 mm 4 mps 759 mmHg 59%
13:00 +27°C° 0.3 mm 4 mps 759 mmHg 61%
14:00 +27°C° 0.3 mm 4 mps 759 mmHg 63%
15:00 +27°C° 0.3 mm 4 mps 759 mmHg 66%
16:00 +26°C° 0.5 mm 3 mps 759 mmHg 72%
17:00 +24°C° 0.5 mm 3 mps 759 mmHg 77%
18:00 +23°C° 0.5 mm 2 mps 759 mmHg 83%
19:00 +23°C° 0 mm 2 mps 759 mmHg 84%
20:00 +21°C° 0 mm 2 mps 759 mmHg 85%
21:00 +21°C° 0 mm 1 mps 760 mmHg 86%
22:00 +21°C° 0 mm 1 mps 760 mmHg 87%
23:00 +19°C° 0 mm 2 mps 760 mmHg 87%

15 August, Saturday

Time Temperature Precipitation Wind Pressure Humidity
00:00 +19°C° 0 mm 2 mps 760 mmHg 88%
01:00 +18°C° 0 mm 2 mps 760 mmHg 88%
02:00 +18°C° 0 mm 2 mps 760 mmHg 88%
03:00 +17°C° 0 mm 2 mps 760 mmHg 88%
04:00 +18°C° 0 mm 2 mps 760 mmHg 86%
05:00 +18°C° 0 mm 2 mps 760 mmHg 85%
06:00 +18°C° 0 mm 2 mps 760 mmHg 83%
07:00 +20°C° 0 mm 2 mps 760 mmHg 75%
08:00 +21°C° 0 mm 3 mps 760 mmHg 67%
09:00 +24°C° 0 mm 3 mps 761 mmHg 59%
10:00 +25°C° 0 mm 3 mps 760 mmHg 54%
11:00 +27°C° 0 mm 3 mps 760 mmHg 48%
12:00 +28°C° 0 mm 3 mps 760 mmHg 43%
13:00 +28°C° 0 mm 2 mps 760 mmHg 41%
14:00 +29°C° 0 mm 2 mps 760 mmHg 40%
15:00 +29°C° 0 mm 1 mps 760 mmHg 38%
16:00 +28°C° 0 mm 1 mps 760 mmHg 43%
17:00 +27°C° 0 mm 1 mps 760 mmHg 49%
18:00 +26°C° 0 mm 1 mps 760 mmHg 54%
19:00 +24°C° 0 mm 2 mps 760 mmHg 58%
20:00 +23°C° 0 mm 2 mps 760 mmHg 62%
21:00 +20°C° 0 mm 2 mps 760 mmHg 66%
22:00 +20°C° 0 mm 2 mps 760 mmHg 67%
23:00 +19°C° 0 mm 2 mps 760 mmHg 68%
Show more